TimeMDT,TemperatureF,Dew PointF,Humidity,Sea Level PressureIn,VisibilityMPH,Wind Direction,Wind SpeedMPH,Gust SpeedMPH,PrecipitationIn,Events,Conditions,WindDirDegrees,DateUTC
12:15 AM,37.4,32.0,81,30.26,10.0,Calm,Calm,-,N/A,,Clear,0,2014-06-09 06:15:00
12:35 AM,35.6,32.0,87,30.26,10.0,WNW,9.2,-,N/A,,Clear,300,2014-06-09 06:35:00
12:55 AM,35.6,32.0,87,30.26,10.0,WNW,9.2,-,N/A,,Clear,290,2014-06-09 06:55:00
1:15 AM,35.6,32.0,87,30.26,10.0,WNW,10.4,-,N/A,,Clear,300,2014-06-09 07:15:00
1:35 AM,35.6,32.0,87,30.26,10.0,WNW,10.4,-,N/A,,Clear,300,2014-06-09 07:35:00
1:55 AM,35.6,32.0,87,30.25,10.0,WNW,9.2,-,N/A,,Clear,290,2014-06-09 07:55:00
2:15 AM,35.6,30.2,81,30.25,10.0,WNW,12.7,-,N/A,,Clear,290,2014-06-09 08:15:00
2:35 AM,33.8,30.2,87,30.25,10.0,WNW,12.7,-,N/A,,Clear,290,2014-06-09 08:35:00
2:55 AM,33.8,30.2,87,30.25,10.0,WNW,6.9,-,N/A,,Clear,290,2014-06-09 08:55:00
3:10 AM,33.8,32.0,93,30.25,10.0,WNW,5.8,-,N/A,,Clear,300,2014-06-09 09:10:00
3:35 AM,33.8,30.2,87,30.25,10.0,Calm,Calm,-,N/A,,Clear,0,2014-06-09 09:35:00
3:55 AM,35.6,30.2,81,30.24,10.0,NW,5.8,-,N/A,,Clear,310,2014-06-09 09:55:00
4:15 AM,33.8,30.2,87,30.24,10.0,Calm,Calm,-,N/A,,Clear,0,2014-06-09 10:15:00
4:35 AM,32.0,30.2,93,30.23,10.0,Calm,Calm,-,N/A,,Clear,0,2014-06-09 10:35:00
4:55 AM,35.6,30.2,81,30.23,10.0,Calm,Calm,-,N/A,,Clear,0,2014-06-09 10:55:00
5:15 AM,33.8,30.2,87,30.23,10.0,WNW,3.5,-,N/A,,Clear,290,2014-06-09 11:15:00
5:35 AM,33.8,30.2,87,30.23,10.0,WNW,6.9,-,N/A,,Clear,290,2014-06-09 11:35:00
5:55 AM,33.8,30.2,87,30.23,10.0,WNW,6.9,-,N/A,,Clear,290,2014-06-09 11:55:00
6:15 AM,37.4,32.0,81,30.23,10.0,WNW,8.1,-,N/A,,Clear,290,2014-06-09 12:15:00
6:35 AM,37.4,32.0,81,30.23,10.0,WNW,5.8,-,N/A,,Clear,290,2014-06-09 12:35:00
6:55 AM,41.0,32.0,70,30.22,10.0,WNW,4.6,-,N/A,,Clear,300,2014-06-09 12:55:00
7:15 AM,42.8,32.0,66,30.22,10.0,Calm,Calm,-,N/A,,Clear,0,2014-06-09 13:15:00
7:30 AM,44.6,32.0,61,30.22,10.0,Calm,Calm,-,N/A,,Clear,0,2014-06-09 13:30:00
7:55 AM,46.4,32.0,57,30.21,10.0,East,5.8,-,N/A,,Clear,80,2014-06-09 13:55:00
8:15 AM,50.0,32.0,50,30.20,10.0,North,6.9,-,N/A,,Clear,360,2014-06-09 14:15:00
8:35 AM,51.8,32.0,47,30.20,10.0,North,10.4,-,N/A,,Clear,350,2014-06-09 14:35:00
8:55 AM,53.6,32.0,44,30.19,10.0,North,15.0,-,N/A,,Clear,350,2014-06-09 14:55:00
9:15 AM,53.6,32.0,44,30.18,10.0,North,9.2,20.7,N/A,,Clear,10,2014-06-09 15:15:00
9:35 AM,57.2,32.0,38,30.18,10.0,NW,9.2,21.9,N/A,,Clear,310,2014-06-09 15:35:00
9:55 AM,59.0,32.0,36,30.17,10.0,NNW,17.3,24.2,N/A,,Clear,340,2014-06-09 15:55:00
10:35 AM,59.0,30.2,34,30.16,10.0,WNW,21.9,27.6,N/A,,Clear,290,2014-06-09 16:35:00
10:55 AM,60.8,32.0,34,30.16,10.0,West,18.4,27.6,N/A,,Clear,280,2014-06-09 16:55:00
11:15 AM,60.8,32.0,34,30.15,10.0,West,17.3,29.9,N/A,,Clear,270,2014-06-09 17:15:00
11:35 AM,60.8,32.0,34,30.14,10.0,West,21.9,32.2,N/A,,Clear,280,2014-06-09 17:35:00
11:55 AM,62.6,32.0,32,30.14,10.0,West,17.3,27.6,N/A,,Clear,270,2014-06-09 17:55:00
12:15 PM,64.4,32.0,30,30.13,10.0,West,21.9,29.9,N/A,,Clear,270,2014-06-09 18:15:00
12:35 PM,62.6,32.0,32,30.12,10.0,West,20.7,28.8,N/A,,Scattered Clouds,270,2014-06-09 18:35:00
1:35 PM,64.4,28.4,26,30.11,10.0,WNW,16.1,34.5,N/A,,Scattered Clouds,300,2014-06-09 19:35:00
1:55 PM,64.4,30.2,28,30.10,10.0,West,19.6,29.9,N/A,,Scattered Clouds,260,2014-06-09 19:55:00
2:15 PM,66.2,28.4,24,30.09,10.0,West,21.9,27.6,N/A,,Scattered Clouds,270,2014-06-09 20:15:00
2:35 PM,68.0,26.6,21,30.08,10.0,NW,17.3,29.9,N/A,,Clear,310,2014-06-09 20:35:00
3:15 PM,68.0,30.2,24,30.07,10.0,West,23.0,31.1,N/A,,Scattered Clouds,260,2014-06-09 21:15:00
3:35 PM,64.4,30.2,28,30.06,10.0,West,26.5,34.5,N/A,,Scattered Clouds,270,2014-06-09 21:35:00
3:55 PM,64.4,28.4,26,30.06,10.0,West,19.6,35.7,N/A,,Scattered Clouds,280,2014-06-09 21:55:00
4:15 PM,68.0,28.4,23,30.05,10.0,West,19.6,28.8,N/A,,Scattered Clouds,280,2014-06-09 22:15:00
4:35 PM,68.0,26.6,21,30.05,10.0,WNW,24.2,32.2,N/A,,Scattered Clouds,300,2014-06-09 22:35:00
4:55 PM,68.0,24.8,20,30.04,10.0,NW,18.4,26.5,N/A,,Clear,310,2014-06-09 22:55:00
5:15 PM,68.0,24.8,20,30.04,10.0,West,20.7,28.8,N/A,,Clear,280,2014-06-09 23:15:00
5:35 PM,68.0,24.8,20,30.04,10.0,WNW,19.6,32.2,N/A,,Clear,300,2014-06-09 23:35:00
5:55 PM,68.0,26.6,21,30.04,10.0,WNW,20.7,28.8,N/A,,Scattered Clouds,290,2014-06-09 23:55:00
6:15 PM,66.2,26.6,23,30.03,10.0,WNW,18.4,29.9,N/A,,Scattered Clouds,300,2014-06-10 00:15:00
6:35 PM,68.0,26.6,21,30.04,10.0,WNW,21.9,31.1,N/A,,Scattered Clouds,290,2014-06-10 00:35:00
6:55 PM,64.4,26.6,24,30.04,10.0,West,21.9,28.8,N/A,,Scattered Clouds,280,2014-06-10 00:55:00
7:15 PM,64.4,26.6,24,30.04,10.0,West,12.7,25.3,N/A,,Scattered Clouds,280,2014-06-10 01:15:00
7:35 PM,64.4,28.4,26,30.04,10.0,West,15.0,21.9,N/A,,Mostly Cloudy,280,2014-06-10 01:35:00
7:55 PM,64.4,28.4,26,30.04,10.0,West,16.1,23.0,N/A,,Mostly Cloudy,280,2014-06-10 01:55:00
8:15 PM,62.6,28.4,27,30.04,10.0,WNW,16.1,21.9,N/A,,Scattered Clouds,290,2014-06-10 02:15:00
8:35 PM,60.8,30.2,31,30.04,10.0,West,9.2,-,N/A,,Scattered Clouds,270,2014-06-10 02:35:00
8:55 PM,59.0,30.2,34,30.04,10.0,West,11.5,-,N/A,,Clear,280,2014-06-10 02:55:00
9:15 PM,59.0,28.4,31,30.04,10.0,West,13.8,-,N/A,,Clear,270,2014-06-10 03:15:00
9:35 PM,59.0,28.4,31,30.04,10.0,West,15.0,20.7,N/A,,Clear,270,2014-06-10 03:35:00
9:55 PM,59.0,26.6,29,30.05,10.0,WNW,9.2,-,N/A,,Clear,300,2014-06-10 03:55:00
10:15 PM,55.4,28.4,36,30.06,10.0,NNW,6.9,-,N/A,,Clear,330,2014-06-10 04:15:00
10:35 PM,53.6,28.4,38,30.06,10.0,NNW,8.1,-,N/A,,Clear,330,2014-06-10 04:35:00
10:55 PM,53.6,28.4,38,30.06,10.0,NW,4.6,-,N/A,,Clear,310,2014-06-10 04:55:00
11:15 PM,51.8,28.4,41,30.05,10.0,WNW,4.6,-,N/A,,Clear,290,2014-06-10 05:15:00
11:35 PM,50.0,26.6,40,30.05,10.0,WNW,8.1,-,N/A,,Clear,290,2014-06-10 05:35:00
11:55 PM,48.2,28.4,46,30.05,10.0,WNW,8.1,-,N/A,,Clear,290,2014-06-10 05:55:00